When you browse on this site, cookies collect data to enhance your experience and personalize the content and advertising you see.
Visit our Privacy Policy to learn more. By continuing to use the site, you agree to this use of cookies and data.
  • In Germany
  • List of Countries
  • For 7 days
  • Water Temperature
  • Weather Map
  • Weather Widgets
  • user-avatar
    Login

    Hourly Weather Ganja

    Today, 5 June, Friday

    Time Temperature Precipitation Wind Pressure Humidity
    00:00 +22°C° 0 mm 3 mps 724 mmHg 63%
    01:00 +21°C° 0.1 mm 3 mps 724 mmHg 67%
    02:00 +20°C° 0.1 mm 3 mps 724 mmHg 72%
    03:00 +19°C° 0 mm 2 mps 724 mmHg 76%
    04:00 +20°C° 0 mm 3 mps 724 mmHg 76%
    05:00 +20°C° 0 mm 3 mps 725 mmHg 75%
    06:00 +20°C° 0 mm 4 mps 725 mmHg 75%
    07:00 +22°C° 0 mm 4 mps 725 mmHg 69%
    08:00 +23°C° 0 mm 4 mps 725 mmHg 64%
    09:00 +26°C° 0 mm 4 mps 725 mmHg 58%
    10:00 +27°C° 0.2 mm 4 mps 725 mmHg 55%
    11:00 +28°C° 0.2 mm 4 mps 725 mmHg 51%
    12:00 +29°C° 0.2 mm 4 mps 725 mmHg 48%
    13:00 +29°C° 0.4 mm 4 mps 725 mmHg 46%
    14:00 +30°C° 0.4 mm 4 mps 725 mmHg 43%
    15:00 +30°C° 0.4 mm 3 mps 724 mmHg 41%
    16:00 +30°C° 0.2 mm 3 mps 725 mmHg 43%
    17:00 +29°C° 0.2 mm 3 mps 725 mmHg 45%
    18:00 +29°C° 0.2 mm 3 mps 725 mmHg 47%
    19:00 +27°C° 0.1 mm 3 mps 726 mmHg 49%
    20:00 +25°C° 0.1 mm 3 mps 726 mmHg 51%
    21:00 +24°C° 0.1 mm 3 mps 727 mmHg 52%
    22:00 +22°C° 0.1 mm 3 mps 727 mmHg 55%
    23:00 +23°C° 0.1 mm 2 mps 727 mmHg 57%

    Tomorrow, 6 June, Saturday

    Time Temperature Precipitation Wind Pressure Humidity
    00:00 +21°C° 0.1 mm 2 mps 728 mmHg 60%
    01:00 +20°C° 0 mm 2 mps 728 mmHg 61%
    02:00 +20°C° 0 mm 2 mps 728 mmHg 63%
    03:00 +19°C° 0 mm 2 mps 728 mmHg 65%
    04:00 +19°C° 0 mm 2 mps 728 mmHg 64%
    05:00 +20°C° 0 mm 2 mps 728 mmHg 64%
    06:00 +20°C° 0 mm 2 mps 728 mmHg 64%
    07:00 +21°C° 0 mm 2 mps 728 mmHg 61%
    08:00 +23°C° 0 mm 2 mps 728 mmHg 58%
    09:00 +24°C° 0 mm 3 mps 728 mmHg 55%
    10:00 +25°C° 0.1 mm 2 mps 728 mmHg 52%
    11:00 +26°C° 0.1 mm 2 mps 728 mmHg 50%
    12:00 +27°C° 0.1 mm 2 mps 728 mmHg 47%
    13:00 +28°C° 0.1 mm 2 mps 728 mmHg 45%
    14:00 +28°C° 0.1 mm 2 mps 728 mmHg 44%
    15:00 +29°C° 0.1 mm 2 mps 727 mmHg 43%
    16:00 +28°C° 0.3 mm 2 mps 727 mmHg 46%
    17:00 +28°C° 0.3 mm 2 mps 727 mmHg 49%
    18:00 +27°C° 0.3 mm 2 mps 728 mmHg 53%
    19:00 +26°C° 0.1 mm 2 mps 728 mmHg 55%
    20:00 +25°C° 0.1 mm 3 mps 728 mmHg 57%
    21:00 +24°C° 0.1 mm 3 mps 728 mmHg 59%
    22:00 +22°C° 0.1 mm 3 mps 728 mmHg 61%
    23:00 +21°C° 0.1 mm 3 mps 728 mmHg 62%

    Day after tomorrow, 7 June, Sunday

    Time Temperature Precipitation Wind Pressure Humidity
    00:00 +21°C° 0.1 mm 3 mps 728 mmHg 63%
    01:00 +20°C° 0.1 mm 2 mps 728 mmHg 65%
    02:00 +20°C° 0.1 mm 2 mps 728 mmHg 66%
    03:00 +19°C° 0.1 mm 2 mps 728 mmHg 68%
    04:00 +20°C° 0 mm 2 mps 728 mmHg 68%
    05:00 +21°C° 0 mm 1 mps 728 mmHg 67%
    06:00 +22°C° 0 mm 1 mps 728 mmHg 67%
    07:00 +23°C° 0 mm 1 mps 728 mmHg 65%
    08:00 +24°C° 0 mm 2 mps 728 mmHg 62%
    09:00 +25°C° 0 mm 2 mps 728 mmHg 60%
    10:00 +26°C° 0 mm 2 mps 728 mmHg 57%
    11:00 +27°C° 0 mm 2 mps 727 mmHg 54%
    12:00 +28°C° 0 mm 2 mps 727 mmHg 51%
    13:00 +29°C° 0.1 mm 2 mps 727 mmHg 49%
    14:00 +29°C° 0.1 mm 2 mps 726 mmHg 46%
    15:00 +30°C° 0.1 mm 1 mps 726 mmHg 43%
    16:00 +30°C° 0 mm 2 mps 726 mmHg 44%
    17:00 +29°C° 0 mm 2 mps 726 mmHg 45%
    18:00 +29°C° 0 mm 2 mps 726 mmHg 45%
    19:00 +28°C° 0 mm 2 mps 726 mmHg 48%
    20:00 +26°C° 0 mm 2 mps 726 mmHg 51%
    21:00 +25°C° 0 mm 2 mps 727 mmHg 54%
    22:00 +24°C° 0 mm 2 mps 726 mmHg 55%
    23:00 +24°C° 0 mm 3 mps 726 mmHg 56%

    8 June, Monday

    Time Temperature Precipitation Wind Pressure Humidity
    00:00 +22°C° 0 mm 3 mps 726 mmHg 57%
    01:00 +21°C° 0 mm 2 mps 726 mmHg 58%
    02:00 +21°C° 0 mm 2 mps 726 mmHg 59%
    03:00 +21°C° 0 mm 1 mps 725 mmHg 59%
    04:00 +22°C° 0 mm 1 mps 725 mmHg 60%
    05:00 +22°C° 0 mm 1 mps 725 mmHg 60%
    06:00 +23°C° 0 mm 1 mps 725 mmHg 60%
    07:00 +24°C° 0 mm 1 mps 725 mmHg 58%
    08:00 +25°C° 0 mm 2 mps 725 mmHg 55%
    09:00 +26°C° 0 mm 2 mps 725 mmHg 53%
    10:00 +27°C° 0 mm 2 mps 725 mmHg 51%
    11:00 +28°C° 0 mm 2 mps 724 mmHg 48%
    12:00 +30°C° 0 mm 2 mps 724 mmHg 46%
    13:00 +30°C° 0 mm 2 mps 724 mmHg 43%
    14:00 +31°C° 0 mm 2 mps 724 mmHg 40%
    15:00 +32°C° 0 mm 2 mps 723 mmHg 38%
    16:00 +31°C° 0 mm 2 mps 723 mmHg 39%
    17:00 +31°C° 0 mm 3 mps 723 mmHg 40%
    18:00 +31°C° 0 mm 3 mps 723 mmHg 42%
    19:00 +29°C° 0 mm 3 mps 724 mmHg 44%
    20:00 +28°C° 0 mm 3 mps 724 mmHg 47%
    21:00 +26°C° 0 mm 3 mps 724 mmHg 49%
    22:00 +25°C° 0 mm 3 mps 724 mmHg 49%
    23:00 +24°C° 0 mm 3 mps 724 mmHg 49%

    9 June, Tuesday

    Time Temperature Precipitation Wind Pressure Humidity
    00:00 +24°C° 0 mm 3 mps 724 mmHg 50%
    01:00 +22°C° 0 mm 3 mps 724 mmHg 51%
    02:00 +21°C° 0 mm 2 mps 724 mmHg 53%
    03:00 +21°C° 0 mm 2 mps 724 mmHg 55%
    04:00 +22°C° 0 mm 1 mps 724 mmHg 56%
    05:00 +23°C° 0 mm 1 mps 724 mmHg 56%
    06:00 +21°C° 0 mm 0 mps 724 mmHg 57%
    07:00 +24°C° 0 mm 1 mps 724 mmHg 54%
    08:00 +26°C° 0 mm 1 mps 724 mmHg 51%
    09:00 +27°C° 0 mm 1 mps 724 mmHg 48%
    10:00 +28°C° 0 mm 2 mps 724 mmHg 44%
    11:00 +30°C° 0 mm 3 mps 724 mmHg 40%
    12:00 +31°C° 0 mm 3 mps 724 mmHg 36%
    13:00 +31°C° 0 mm 3 mps 724 mmHg 34%
    14:00 +33°C° 0 mm 4 mps 724 mmHg 33%
    15:00 +34°C° 0 mm 4 mps 724 mmHg 31%
    16:00 +33°C° 0 mm 4 mps 723 mmHg 35%
    17:00 +32°C° 0 mm 4 mps 723 mmHg 38%
    18:00 +30°C° 0 mm 4 mps 723 mmHg 41%
    19:00 +29°C° 0 mm 4 mps 724 mmHg 44%
    20:00 +27°C° 0 mm 3 mps 724 mmHg 46%
    21:00 +26°C° 0 mm 3 mps 725 mmHg 48%
    22:00 +25°C° 0 mm 3 mps 725 mmHg 48%
    23:00 +25°C° 0 mm 2 mps 725 mmHg 48%

    10 June, Wednesday

    Time Temperature Precipitation Wind Pressure Humidity
    00:00 +24°C° 0 mm 2 mps 725 mmHg 48%
    01:00 +24°C° 0 mm 2 mps 725 mmHg 49%
    02:00 +23°C° 0 mm 1 mps 724 mmHg 50%
    03:00 +23°C° 0 mm 1 mps 724 mmHg 50%
    04:00 +23°C° 0 mm 1 mps 725 mmHg 51%
    05:00 +24°C° 0 mm 1 mps 725 mmHg 52%
    06:00 +24°C° 0 mm 1 mps 725 mmHg 53%
    07:00 +25°C° 0 mm 1 mps 725 mmHg 50%
    08:00 +27°C° 0 mm 2 mps 725 mmHg 46%
    09:00 +28°C° 0 mm 2 mps 725 mmHg 42%
    10:00 +29°C° 0.1 mm 2 mps 725 mmHg 39%
    11:00 +30°C° 0.1 mm 3 mps 725 mmHg 37%
    12:00 +31°C° 0.1 mm 3 mps 725 mmHg 34%
    13:00 +33°C° 0.1 mm 4 mps 725 mmHg 33%
    14:00 +33°C° 0.1 mm 4 mps 725 mmHg 32%
    15:00 +34°C° 0.1 mm 4 mps 725 mmHg 31%
    16:00 +33°C° 0 mm 4 mps 725 mmHg 35%
    17:00 +32°C° 0 mm 4 mps 725 mmHg 38%
    18:00 +31°C° 0 mm 3 mps 725 mmHg 41%
    19:00 +29°C° 0 mm 3 mps 725 mmHg 42%
    20:00 +28°C° 0 mm 3 mps 726 mmHg 43%
    21:00 +27°C° 0 mm 3 mps 726 mmHg 44%
    22:00 +26°C° 0 mm 3 mps 726 mmHg 45%
    23:00 +25°C° 0 mm 3 mps 726 mmHg 45%
    Show more